| time (UTC) | temp F | wind direction | speed knots | gust knots | rain 1hr in | rain 24hr in | rain mn in | humidity % | barometer mb |
| 20260504081604 | 52 | 186 | 3.5 | 6.1 | 0.00 | 0.00 | 0.00 | 73 | 1012.3 |
| 20260504081042 | 52 | 196 | 2.6 | 5.2 | 0.00 | 0.00 | 0.00 | 73 | 1012.4 |
| 20260504080547 | 52 | 194 | 3.5 | 6.1 | 0.00 | 0.00 | 0.00 | 73 | 1012.3 |
| 20260504050544 | 49 | 0 | 0.0 | 0.0 | 0.00 | 0.00 | 0.00 | 72 | 1013.9 |
| 20260504045543 | 52 | 0 | 0.0 | 1.7 | 0.00 | 0.00 | 0.00 | 67 | 1014.2 |
| 20260504045042 | 53 | 0 | 0.0 | 1.7 | 0.00 | 0.00 | 0.00 | 65 | 1014.2 |
| 20260504044557 | 53 | 0 | 0.0 | 0.0 | 0.00 | 0.00 | 0.00 | 65 | 1014.3 |
| 20260504044043 | 53 | 0 | 0.0 | 0.0 | 0.00 | 0.00 | 0.00 | 65 | 1014.3 |
| 20260504043543 | 53 | 0 | 0.0 | 1.7 | 0.00 | 0.00 | 0.00 | 65 | 1014.3 |
| 20260504043056 | 53 | 0 | 0.0 | 1.7 | 0.00 | 0.00 | 0.00 | 65 | 1014.3 |
| 20260504042544 | 53 | 0 | 0.0 | 3.5 | 0.00 | 0.00 | 0.00 | 65 | 1014.3 |
| 20260504042041 | 53 | 0 | 0.0 | 3.5 | 0.00 | 0.00 | 0.00 | 66 | 1014.3 |
| 20260504041558 | 54 | 185 | 1.7 | 5.2 | 0.00 | 0.00 | 0.00 | 65 | 1014.3 |
| 20260504041044 | 55 | 204 | 1.7 | 5.2 | 0.00 | 0.00 | 0.00 | 63 | 1014.1 |
| 20260504040544 | 55 | 216 | 2.6 | 7.8 | 0.00 | 0.00 | 0.00 | 63 | 1014.2 |
| 20260504035544 | 55 | 206 | 3.5 | 7.0 | 0.00 | 0.00 | 0.00 | 62 | 1014.0 |
| 20260504035044 | 55 | 198 | 2.6 | 8.7 | 0.00 | 0.00 | 0.00 | 62 | 1014.0 |
| 20260504034557 | 56 | 207 | 4.3 | 9.6 | 0.00 | 0.00 | 0.00 | 61 | 1013.9 |
| 20260504034045 | 56 | 200 | 4.3 | 9.6 | 0.00 | 0.00 | 0.00 | 60 | 1013.9 |
| 20260504033543 | 56 | 213 | 5.2 | 10.4 | 0.00 | 0.00 | 0.00 | 60 | 1013.9 |
| 20260504033051 | 56 | 197 | 5.2 | 9.6 | 0.00 | 0.00 | 0.00 | 60 | 1013.8 |
| 20260504032543 | 56 | 186 | 6.1 | 9.6 | 0.00 | 0.00 | 0.00 | 61 | 1013.7 |
| 20260504032044 | 55 | 201 | 6.1 | 9.6 | 0.00 | 0.00 | 0.00 | 62 | 1013.8 |
| 20260504031553 | 55 | 211 | 6.1 | 9.6 | 0.00 | 0.00 | 0.00 | 63 | 1013.8 |
| 20260504031042 | 54 | 193 | 6.1 | 9.6 | 0.00 | 0.00 | 0.00 | 65 | 1013.9 |
| 20260504030542 | 53 | 194 | 5.2 | 7.8 | 0.00 | 0.00 | 0.00 | 68 | 1014.0 |
| 20260504030055 | 52 | 193 | 4.3 | 7.0 | 0.00 | 0.00 | 0.00 | 69 | 1014.0 |
| 20260504025544 | 52 | 190 | 3.5 | 5.2 | 0.00 | 0.00 | 0.00 | 71 | 1014.0 |
| 20260504025044 | 51 | 167 | 3.5 | 5.2 | 0.00 | 0.00 | 0.00 | 73 | 1014.1 |
| 20260504024614 | 50 | 188 | 2.6 | 4.3 | 0.00 | 0.00 | 0.00 | 75 | 1014.2 |
| 20260504024047 | 49 | 191 | 1.7 | 3.5 | 0.00 | 0.00 | 0.00 | 76 | 1014.2 |
| 20260504023543 | 48 | 182 | 2.6 | 2.6 | 0.00 | 0.00 | 0.00 | 76 | 1014.3 |
| 20260504023054 | 49 | 191 | 2.6 | 2.6 | 0.00 | 0.00 | 0.00 | 75 | 1014.3 |
| 20260504022543 | 50 | 202 | 1.7 | 2.6 | 0.00 | 0.00 | 0.00 | 74 | 1014.4 |
| 20260504022044 | 52 | 205 | 1.7 | 1.7 | 0.00 | 0.00 | 0.00 | 70 | 1014.5 |
| 20260504021556 | 52 | 205 | 0.0 | 1.7 | 0.00 | 0.00 | 0.00 | 69 | 1014.5 |
| 20260504021043 | 52 | 0 | 0.0 | 0.9 | 0.00 | 0.00 | 0.00 | 70 | 1014.6 |
| 20260504020543 | 52 | 0 | 0.9 | 1.7 | 0.00 | 0.00 | 0.00 | 71 | 1014.5 |
| 20260504020055 | 52 | 223 | 0.9 | 1.7 | 0.00 | 0.00 | 0.00 | 69 | 1014.6 |
| 20260504015541 | 54 | 0 | 0.0 | 0.0 | 0.00 | 0.00 | 0.00 | 64 | 1014.6 |
| 20260504015043 | 55 | 0 | 0.0 | 0.0 | 0.00 | 0.00 | 0.00 | 61 | 1014.6 |
| 20260504014603 | 56 | 0 | 0.0 | 0.0 | 0.00 | 0.00 | 0.00 | 59 | 1014.6 |
| 20260504014042 | 56 | 0 | 0.0 | 0.0 | 0.00 | 0.00 | 0.00 | 59 | 1014.6 |
| 20260504013543 | 56 | 0 | 0.0 | 0.0 | 0.00 | 0.00 | 0.00 | 61 | 1014.6 |
| 20260504013054 | 55 | 0 | 0.0 | 0.0 | 0.00 | 0.00 | 0.00 | 62 | 1014.5 |
| 20260504012546 | 55 | 0 | 0.0 | 0.0 | 0.00 | 0.00 | 0.00 | 62 | 1014.3 |
| 20260504012043 | 56 | 0 | 0.0 | 0.0 | 0.00 | 0.00 | 0.00 | 60 | 1014.2 |
| 20260504011551 | 57 | 0 | 0.0 | 0.0 | 0.00 | 0.00 | 0.00 | 59 | 1014.2 |
| 20260504011042 | 57 | 0 | 0.0 | 0.0 | 0.00 | 0.00 | 0.00 | 58 | 1014.2 |
| 20260504010541 | 57 | 0 | 0.0 | 0.0 | 0.00 | 0.00 | 0.00 | 58 | 1014.2 |
| 20260504010055 | 57 | 0 | 0.0 | 0.9 | 0.00 | 0.00 | 0.00 | 59 | 1014.2 |
| 20260504005542 | 56 | 0 | 0.0 | 0.9 | 0.00 | 0.00 | 0.00 | 60 | 1014.2 |
| 20260504005044 | 56 | 0 | 0.0 | 1.7 | 0.00 | 0.00 | 0.00 | 62 | 1014.1 |
| 20260504004551 | 56 | 0 | 0.9 | 2.6 | 0.00 | 0.00 | 0.00 | 62 | 1013.9 |
| 20260504004044 | 56 | 360 | 1.7 | 5.2 | 0.00 | 0.00 | 0.00 | 61 | 1013.9 |
| 20260504003542 | 57 | 360 | 2.6 | 5.2 | 0.00 | 0.00 | 0.00 | 58 | 1014.0 |
| 20260504003057 | 58 | 360 | 1.7 | 4.3 | 0.00 | 0.00 | 0.00 | 57 | 1014.1 |
| 20260504002543 | 59 | 360 | 1.7 | 4.3 | 0.00 | 0.00 | 0.00 | 55 | 1014.1 |
| 20260504002044 | 59 | 360 | 2.6 | 5.2 | 0.00 | 0.00 | 0.00 | 55 | 1014.1 |
| 20260504001551 | 60 | 192 | 2.6 | 5.2 | 0.00 | 0.00 | 0.00 | 54 | 1014.1 |
| 20260504001043 | 60 | 198 | 2.6 | 5.2 | 0.00 | 0.00 | 0.00 | 52 | 1014.1 |
| 20260504000543 | 61 | 205 | 2.6 | 5.2 | 0.00 | 0.00 | 0.00 | 52 | 1014.2 |
| 20260504000138 | 62 | 190 | 2.6 | 5.2 | 0.00 | 0.00 | 0.00 | 49 | 1014.3 |
| 20260503235543 | 62 | 180 | 2.6 | 6.1 | 0.00 | 0.00 | 0.00 | 48 | 1014.2 |
| 20260503235043 | 63 | 198 | 2.6 | 7.8 | 0.00 | 0.00 | 0.00 | 48 | 1014.3 |
| 20260503234600 | 64 | 184 | 5.2 | 7.8 | 0.00 | 0.00 | 0.00 | 43 | 1014.3 |
| 20260503234047 | 64 | 177 | 3.5 | 7.8 | 0.00 | 0.00 | 0.00 | 43 | 1014.4 |
| 20260503233542 | 64 | 207 | 4.3 | 9.6 | 0.00 | 0.00 | 0.00 | 43 | 1014.3 |
| 20260503233053 | 64 | 190 | 5.2 | 9.6 | 0.00 | 0.00 | 0.00 | 43 | 1014.3 |
| 20260503232543 | 65 | 213 | 4.3 | 8.7 | 0.00 | 0.00 | 0.00 | 45 | 1014.3 |
| 20260503232043 | 65 | 192 | 5.2 | 9.6 | 0.00 | 0.00 | 0.00 | 44 | 1014.4 |
| 20260503231552 | 65 | 207 | 6.1 | 10.4 | 0.00 | 0.00 | 0.00 | 44 | 1014.5 |
| 20260503231044 | 65 | 219 | 7.0 | 10.4 | 0.00 | 0.00 | 0.00 | 44 | 1014.6 |
| 20260503230544 | 66 | 201 | 4.3 | 9.6 | 0.00 | 0.00 | 0.00 | 43 | 1014.8 |
| 20260503230051 | 66 | 209 | 5.2 | 10.4 | 0.00 | 0.00 | 0.00 | 44 | 1014.9 |
| 20260503225547 | 66 | 242 | 6.1 | 10.4 | 0.00 | 0.00 | 0.00 | 44 | 1015.1 |
| 20260503225043 | 66 | 186 | 2.6 | 8.7 | 0.00 | 0.00 | 0.00 | 41 | 1015.2 |
| 20260503224554 | 66 | 191 | 5.2 | 9.6 | 0.00 | 0.00 | 0.00 | 41 | 1015.3 |
| 20260503224041 | 66 | 251 | 5.2 | 10.4 | 0.00 | 0.00 | 0.00 | 39 | 1015.3 |
| 20260503223542 | 66 | 261 | 4.3 | 9.6 | 0.00 | 0.00 | 0.00 | 40 | 1015.2 |
| 20260503223050 | 66 | 182 | 4.3 | 8.7 | 0.00 | 0.00 | 0.00 | 42 | 1015.2 |
| 20260503222543 | 66 | 169 | 3.5 | 12.2 | 0.00 | 0.00 | 0.00 | 41 | 1015.3 |
| 20260503222044 | 66 | 252 | 6.1 | 12.2 | 0.00 | 0.00 | 0.00 | 42 | 1015.4 |
| 20260503221556 | 66 | 246 | 4.3 | 10.4 | 0.00 | 0.00 | 0.00 | 42 | 1015.5 |
| 20260503221044 | 66 | 207 | 6.1 | 10.4 | 0.00 | 0.00 | 0.00 | 41 | 1015.6 |
| 20260503220544 | 67 | 221 | 6.1 | 10.4 | 0.00 | 0.00 | 0.00 | 41 | 1015.6 |
| 20260503220055 | 66 | 283 | 3.5 | 10.4 | 0.00 | 0.00 | 0.00 | 38 | 1015.6 |
| 20260503215544 | 67 | 204 | 6.1 | 10.4 | 0.00 | 0.00 | 0.00 | 39 | 1015.6 |
| 20260503215043 | 66 | 201 | 7.0 | 10.4 | 0.00 | 0.00 | 0.00 | 40 | 1015.6 |
| 20260503214551 | 66 | 213 | 4.3 | 10.4 | 0.00 | 0.00 | 0.00 | 39 | 1015.7 |
| 20260503214045 | 67 | 275 | 5.2 | 13.0 | 0.00 | 0.00 | 0.00 | 38 | 1015.8 |
| 20260503213542 | 67 | 245 | 7.8 | 13.0 | 0.00 | 0.00 | 0.00 | 37 | 1015.8 |
| 20260503213051 | 67 | 205 | 3.5 | 11.3 | 0.00 | 0.00 | 0.00 | 41 | 1015.9 |
| 20260503212546 | 67 | 240 | 5.2 | 11.3 | 0.00 | 0.00 | 0.00 | 37 | 1016.1 |
| 20260503212044 | 67 | 230 | 4.3 | 14.8 | 0.00 | 0.00 | 0.00 | 39 | 1016.3 |
| 20260503211611 | 67 | 205 | 9.6 | 14.8 | 0.00 | 0.00 | 0.00 | 38 | 1016.2 |
| 20260503211042 | 67 | 194 | 4.3 | 11.3 | 0.00 | 0.00 | 0.00 | 40 | 1016.4 |
| 20260503210547 | 67 | 209 | 7.0 | 11.3 | 0.00 | 0.00 | 0.00 | 39 | 1016.5 |
| 20260503210053 | 67 | 205 | 5.2 | 9.6 | 0.00 | 0.00 | 0.00 | 40 | 1016.6 |
| 20260503205543 | 67 | 209 | 3.5 | 9.6 | 0.00 | 0.00 | 0.00 | 40 | 1016.7 |
| 20260503205043 | 67 | 290 | 3.5 | 9.6 | 0.00 | 0.00 | 0.00 | 41 | 1016.8 |
| 20260503204552 | 67 | 280 | 3.5 | 13.0 | 0.00 | 0.00 | 0.00 | 38 | 1016.7 |
| 20260503204043 | 66 | 259 | 7.0 | 13.0 | 0.00 | 0.00 | 0.00 | 37 | 1016.8 |
| 20260503203543 | 67 | 244 | 5.2 | 8.7 | 0.00 | 0.00 | 0.00 | 37 | 1016.9 |
| 20260503203107 | 67 | 238 | 3.5 | 10.4 | 0.00 | 0.00 | 0.00 | 39 | 1017.0 |
| 20260503202544 | 67 | 259 | 6.1 | 10.4 | 0.00 | 0.00 | 0.00 | 37 | 1017.1 |
| 20260503202042 | 66 | 288 | 4.3 | 10.4 | 0.00 | 0.00 | 0.00 | 38 | 1017.1 |
| 20260503201549 | 66 | 228 | 6.1 | 10.4 | 0.00 | 0.00 | 0.00 | 39 | 1017.2 |
| 20260503201042 | 66 | 301 | 6.1 | 10.4 | 0.00 | 0.00 | 0.00 | 38 | 1017.4 |
| 20260503200542 | 66 | 233 | 4.3 | 8.7 | 0.00 | 0.00 | 0.00 | 41 | 1017.4 |
| 20260503200058 | 66 | 190 | 3.5 | 8.7 | 0.00 | 0.00 | 0.00 | 40 | 1017.5 |
| 20260503195543 | 66 | 192 | 5.2 | 9.6 | 0.00 | 0.00 | 0.00 | 43 | 1017.6 |
| 20260503195042 | 66 | 178 | 6.1 | 9.6 | 0.00 | 0.00 | 0.00 | 41 | 1017.9 |
| 20260503194555 | 65 | 181 | 2.6 | 13.0 | 0.00 | 0.00 | 0.00 | 39 | 1017.9 |
| 20260503194044 | 66 | 226 | 7.0 | 13.0 | 0.00 | 0.00 | 0.00 | 38 | 1018.1 |
| 20260503193543 | 66 | 175 | 3.5 | 7.8 | 0.00 | 0.00 | 0.00 | 42 | 1018.2 |
| 20260503193051 | 66 | 178 | 3.5 | 9.6 | 0.00 | 0.00 | 0.00 | 42 | 1018.2 |
| 20260503192540 | 66 | 188 | 6.1 | 9.6 | 0.00 | 0.00 | 0.00 | 45 | 1018.3 |
| 20260503192043 | 66 | 179 | 5.2 | 9.6 | 0.00 | 0.00 | 0.00 | 43 | 1018.4 |
| 20260503191553 | 65 | 227 | 4.3 | 7.0 | 0.00 | 0.00 | 0.00 | 40 | 1018.5 |
| 20260503191045 | 64 | 324 | 1.7 | 8.7 | 0.00 | 0.00 | 0.00 | 38 | 1018.6 |
| 20260503190541 | 65 | 202 | 5.2 | 9.6 | 0.00 | 0.00 | 0.00 | 44 | 1018.7 |
| 20260503190050 | 64 | 253 | 3.5 | 9.6 | 0.00 | 0.00 | 0.00 | 39 | 1018.8 |
| 20260503185542 | 65 | 286 | 4.3 | 8.7 | 0.00 | 0.00 | 0.00 | 42 | 1018.8 |
| 20260503185042 | 65 | 178 | 3.5 | 8.7 | 0.00 | 0.00 | 0.00 | 39 | 1018.8 |
| 20260503184552 | 64 | 185 | 3.5 | 8.7 | 0.00 | 0.00 | 0.00 | 43 | 1018.7 |
| 20260503184041 | 64 | 295 | 3.5 | 9.6 | 0.00 | 0.00 | 0.00 | 40 | 1018.9 |
| 20260503183543 | 64 | 254 | 6.1 | 10.4 | 0.00 | 0.00 | 0.00 | 43 | 1019.0 |
| 20260503183051 | 63 | 142 | 2.6 | 10.4 | 0.00 | 0.00 | 0.00 | 45 | 1019.1 |
| 20260503182543 | 63 | 160 | 1.7 | 7.0 | 0.00 | 0.00 | 0.00 | 41 | 1019.0 |
| 20260503182042 | 64 | 220 | 3.5 | 8.7 | 0.00 | 0.00 | 0.00 | 43 | 1019.1 |
| 20260503181601 | 63 | 219 | 2.6 | 8.7 | 0.00 | 0.00 | 0.00 | 43 | 1019.1 |
| 20260503181042 | 63 | 211 | 3.5 | 8.7 | 0.00 | 0.00 | 0.00 | 43 | 1019.2 |
| 20260503180543 | 63 | 214 | 3.5 | 8.7 | 0.00 | 0.00 | 0.00 | 45 | 1019.2 |
| 20260503180054 | 63 | 226 | 3.5 | 8.7 | 0.00 | 0.00 | 0.00 | 41 | 1019.4 |
| 20260503175543 | 63 | 180 | 4.3 | 8.7 | 0.00 | 0.00 | 0.00 | 40 | 1019.3 |
| 20260503175042 | 62 | 229 | 2.6 | 9.6 | 0.00 | 0.00 | 0.00 | 39 | 1019.5 |
| 20260503174551 | 62 | 240 | 5.2 | 9.6 | 0.00 | 0.00 | 0.00 | 40 | 1019.5 |
| 20260503174042 | 62 | 265 | 0.9 | 7.8 | 0.00 | 0.00 | 0.00 | 46 | 1019.6 |
| 20260503173542 | 61 | 111 | 1.7 | 7.8 | 0.00 | 0.00 | 0.00 | 43 | 1019.7 |
| 20260503173057 | 61 | 222 | 2.6 | 7.8 | 0.00 | 0.00 | 0.00 | 50 | 1019.6 |
| 20260503172542 | 61 | 360 | 5.2 | 7.8 | 0.00 | 0.00 | 0.00 | 41 | 1019.7 |
| 20260503172042 | 62 | 139 | 4.3 | 8.7 | 0.00 | 0.00 | 0.00 | 43 | 1019.8 |
| 20260503171554 | 61 | 176 | 4.3 | 8.7 | 0.00 | 0.00 | 0.00 | 43 | 1020.0 |
| 20260503171044 | 60 | 0 | 1.7 | 6.1 | 0.00 | 0.00 | 0.00 | 42 | 1020.1 |
| 20260503170544 | 61 | 226 | 3.5 | 17.4 | 0.00 | 0.00 | 0.00 | 49 | 1020.1 |
| 20260503150543 | 57 | 167 | 3.5 | 7.8 | 0.00 | 0.00 | 0.00 | 51 | 1021.1 |
| 20260503131047 | 49 | 0 | 0.0 | 0.0 | 0.00 | 0.00 | 0.00 | 89 | 1020.7 |
| 20260503130543 | 48 | 0 | 0.0 | 0.0 | 0.00 | 0.00 | 0.00 | 92 | 1020.7 |
| 20260503110542 | 36 | 0 | 0.0 | 0.0 | 0.00 | 0.00 | 0.00 | 95 | 1020.0 |